OneWeb SL0139

operational
NORAD ID: 47261 Int'l Des: 2020-100 Owner: ONEWEB Country: UK Constellation: oneweb
LEOCIRCULARPOLARONEWEB_TYPE

Über OneWeb SL0139

Beschreibung wird geladen...

Live-Position

3D-Globus wird geladen...

Nächste Überflüge

Höhenverlauf

Altitude vs Time

uPlot chart will show altitude changes over time

Zweizeiliger Elementsatz

1 47261U 20100D 25304.79311231 .00000451 00000-0 12175-2 0 9992
2 47261 87.8973 36.0271 0001792 101.7260 258.4070 13.12444991234608
Epoch: 31. Okt. 2025 • Age: 21 hours

Aktueller Status

Höhe 1221.7 km
Geschwindigkeit 7.25 km/s
Subsatellitenpunkt 55.41°N, 65.28°W
Startdatum 18. Dez. 2020
Alter 4.8 years
Typ internet

Technische Details

Klassifizierung Payload
Masse 148.00 kg
Trockenmasse 140.00 kg
Gesamtmasse 148.00 kg
Länge 1.30 m
Durchmesser 1.00 m
Spannweite 5.00 m
Form Trapezoid+2 pan
Hersteller ONEWUS
Bus-Typ ARROW
Phasenstatus In Orbit
Besitzer/Staat ONEWEB/UK

Große Konstellationen

Loading constellations...